Weather History for PAWS - August, 2014

Change the Weather History Date:

Friday, August 29, 2014

  Actual Average Record
Temperature  
Mean Temperature 53 °F -  
Max Temperature 60 °F 64 °F 75 °F (1974)
Min Temperature 46 °F 43 °F 29 °F (1984)
Degree Days  
Heating Degree Days 12    
Growing Degree Days 3 (Base 50)    
Moisture  
Dew Point 44 °F    
Average Humidity 71    
Maximum Humidity 87    
Minimum Humidity 51    
Precipitation  
Precipitation 0.39 in - - ()
Sea Level Pressure  
Sea Level Pressure 29.56 in    
Wind  
Wind Speed 2 mph (WSW)    
Max Wind Speed 9 mph    
Max Gust Speed 16 mph    
Visibility 9 miles    
Events      
Averages and records for this station are not official NWS values.
T = Trace of Precipitation, MM = Missing Value Source: NWS Daily Summary

Daily Weather History Graph

Daily Weather History Graph

Search for Another Location

Airport or City:

Trip Planner

Search our weather history database for the weather conditions in past years. The results will help you decide how hot, cold, wet, or windy it might be!

Date:

Astronomy

Aug. 29, 2014 Rise Set
Actual Time 6:41 AM AKDT 9:14 PM AKDT
Civil Twilight 5:52 AM AKDT 10:02 PM AKDT
Nautical Twilight 4:46 AM AKDT 11:07 PM AKDT
Astronomical Twilight 3:04 AM AKDT 12:45 AM AKDT
Moon 12:00 PM AKDT (8/29) 9:53 PM AKDT (8/29)
Length of Visible Light 16h 10m
Length of Day
14h 32m
Waxing Crescent, 16% of the Moon is Illuminated
Aug 29
Waxing Crescent
Sep 2
First Quarter
Sep 8
Full
Sep 15
Last Quarter
Sep 23
New

Hourly Weather History & Observations

Time (AKDT) Temp. Windchill Dew Point Humidity Pressure Visibility Wind Dir Wind Speed Gust Speed Precip Events Conditions
12:16 AM 51.8 °F - 44.6 °F 76% 29.61 in 8.0 mi Calm Calm - 0.02 in   Overcast
12:36 AM 51.8 °F - 44.6 °F 76% 29.60 in 5.0 mi Calm Calm - 0.05 in   Overcast
12:56 AM 51.8 °F - 44.6 °F 76% 29.60 in 8.0 mi Calm Calm - 0.08 in   Overcast
1:16 AM 51.8 °F - 44.6 °F 76% 29.60 in 10.0 mi Calm Calm - 0.02 in   Overcast
1:36 AM 51.8 °F - 44.6 °F 76% 29.60 in 10.0 mi Calm Calm - 0.03 in   Overcast
1:56 AM 50.0 °F - 44.6 °F 82% 29.60 in 4.0 mi Calm Calm - 0.04 in   Overcast
2:16 AM 51.8 °F - 44.6 °F 76% 29.60 in 10.0 mi Calm Calm - 0.01 in   Overcast
2:36 AM 50.0 °F - 44.6 °F 82% 29.59 in 4.0 mi Calm Calm - 0.03 in   Overcast
2:56 AM 50.0 °F - 44.6 °F 82% 29.59 in 2.0 mi Calm Calm - 0.05 in   Overcast
3:16 AM 50.0 °F - 44.6 °F 82% 29.59 in 9.0 mi Calm Calm - 0.02 in   Overcast
3:36 AM 50.0 °F - 44.6 °F 82% 29.59 in 10.0 mi Calm Calm - 0.05 in   Overcast
3:56 AM 50.0 °F - 44.6 °F 82% 29.59 in 3.0 mi Calm Calm - 0.07 in   Overcast
4:16 AM 48.2 °F - 44.6 °F 87% 29.58 in 1.8 mi Calm Calm - 0.02 in   Overcast
4:36 AM 50.0 °F - 44.6 °F 82% 29.58 in 10.0 mi Calm Calm - 0.04 in   Overcast
4:56 AM 50.0 °F - 44.6 °F 82% 29.58 in 9.0 mi Calm Calm - 0.07 in   Overcast
5:16 AM 50.0 °F - 44.6 °F 82% 29.58 in 10.0 mi Calm Calm - 0.02 in   Overcast
5:36 AM 50.0 °F - 44.6 °F 82% 29.58 in 8.0 mi Calm Calm - 0.03 in   Overcast
5:56 AM 50.0 °F - 44.6 °F 82% 29.58 in 10.0 mi Calm Calm - 0.04 in   Overcast
6:16 AM 50.0 °F - 44.6 °F 82% 29.58 in 9.0 mi Calm Calm - 0.01 in   Overcast
6:36 AM 48.2 °F - 44.6 °F 87% 29.58 in 3.0 mi ESE 3.5 mph - 0.02 in   Overcast
6:56 AM 48.2 °F - 44.6 °F 87% 29.58 in 10.0 mi SE 3.5 mph - 0.02 in   Overcast
7:16 AM 48.2 °F - 44.6 °F 87% 29.58 in 10.0 mi Calm Calm - 0.01 in   Overcast
7:36 AM 50.0 °F - 44.6 °F 82% 29.58 in 10.0 mi Calm Calm - 0.01 in   Overcast
7:56 AM 50.0 °F - 44.6 °F 82% 29.58 in 10.0 mi Calm Calm - 0.01 in   Overcast
8:16 AM 50.0 °F - 44.6 °F 82% 29.58 in 9.0 mi Calm Calm - 0.01 in   Mostly Cloudy
8:36 AM 50.0 °F - 44.6 °F 82% 29.58 in 10.0 mi Calm Calm - 0.01 in   Overcast
8:56 AM 51.8 °F - 44.6 °F 76% 29.57 in 10.0 mi Calm Calm - 0.01 in   Overcast
9:16 AM 51.8 °F - 44.6 °F 76% 29.57 in 10.0 mi Calm Calm - N/A   Overcast
9:36 AM 51.8 °F - 44.6 °F 76% 29.57 in 10.0 mi Calm Calm - N/A   Mostly Cloudy
9:56 AM 51.8 °F - 42.8 °F 71% 29.57 in 10.0 mi Calm Calm - N/A   Mostly Cloudy
10:16 AM 51.8 °F - 42.8 °F 71% 29.56 in 10.0 mi Calm Calm - N/A   Overcast
10:36 AM 51.8 °F - 44.6 °F 76% 29.56 in 10.0 mi Calm Calm - N/A   Overcast
10:56 AM 53.6 °F - 44.6 °F 72% 29.56 in 10.0 mi Calm Calm - N/A   Overcast
11:16 AM 53.6 °F - 44.6 °F 72% 29.56 in 10.0 mi WNW 3.5 mph - N/A   Mostly Cloudy
11:36 AM 53.6 °F - 46.4 °F 77% 29.56 in 9.0 mi Calm Calm - N/A   Overcast
11:56 AM 53.6 °F - 46.4 °F 77% 29.56 in 10.0 mi Calm Calm - N/A   Overcast
12:16 PM 53.6 °F - 42.8 °F 67% 29.56 in 10.0 mi Calm Calm - N/A   Overcast
12:36 PM 53.6 °F - 44.6 °F 72% 29.56 in 10.0 mi SSW 3.5 mph - N/A   Mostly Cloudy
12:56 PM 55.4 °F - 46.4 °F 72% 29.56 in 10.0 mi WSW 4.6 mph - N/A   Overcast
1:16 PM 57.2 °F - 46.4 °F 67% 29.55 in 10.0 mi WSW 5.8 mph - N/A   Mostly Cloudy
1:36 PM 57.2 °F - 44.6 °F 63% 29.55 in 10.0 mi West 4.6 mph - N/A   Mostly Cloudy
1:56 PM 57.2 °F - 44.6 °F 63% 29.55 in 10.0 mi West 8.1 mph - N/A   Overcast
2:16 PM 57.2 °F - 42.8 °F 59% 29.54 in 10.0 mi West 5.8 mph - N/A   Scattered Clouds
2:36 PM 59.0 °F - 44.6 °F 59% 29.54 in 10.0 mi West 5.8 mph - N/A   Scattered Clouds
2:56 PM 59.0 °F - 44.6 °F 59% 29.54 in 10.0 mi West 4.6 mph - N/A   Clear
3:16 PM 59.0 °F - 44.6 °F 59% 29.54 in 10.0 mi West 9.2 mph - N/A   Partly Cloudy
3:36 PM 59.0 °F - 44.6 °F 59% 29.54 in 10.0 mi WNW 9.2 mph - N/A   Clear
3:56 PM 59.0 °F - 44.6 °F 59% 29.54 in 10.0 mi WSW 6.9 mph - N/A   Partly Cloudy
4:16 PM 60.8 °F - 42.8 °F 52% 29.53 in 10.0 mi West 4.6 mph - N/A   Clear
4:36 PM 60.8 °F - 42.8 °F 52% 29.53 in 10.0 mi WSW 3.5 mph - N/A   Clear
4:56 PM 60.8 °F - 42.8 °F 52% 29.53 in 10.0 mi Calm Calm - N/A   Clear
5:16 PM 60.8 °F - 42.8 °F 52% 29.53 in 10.0 mi West 5.8 mph - N/A   Clear
5:36 PM 60.8 °F - 42.8 °F 52% 29.52 in 10.0 mi West 4.6 mph - N/A   Clear
5:56 PM 60.8 °F - 42.8 °F 52% 29.53 in 10.0 mi West 6.9 mph - N/A   Clear
6:16 PM 60.8 °F - 42.8 °F 52% 29.53 in 10.0 mi WSW 5.8 mph - N/A   Clear
6:36 PM 60.8 °F - 42.8 °F 52% 29.53 in 10.0 mi West 9.2 mph - N/A   Clear
6:56 PM 59.0 °F - 41.0 °F 51% 29.53 in 10.0 mi WSW 6.9 mph 16.1 mph N/A   Clear
7:16 PM 59.0 °F - 42.8 °F 55% 29.53 in 10.0 mi West 5.8 mph - N/A   Clear
7:36 PM 59.0 °F - 42.8 °F 55% 29.53 in 10.0 mi West 4.6 mph - N/A   Clear
7:56 PM 57.2 °F - 41.0 °F 55% 29.53 in 10.0 mi West 5.8 mph - N/A   Clear
8:16 PM 55.4 °F - 41.0 °F 58% 29.54 in 10.0 mi WSW 4.6 mph - N/A   Clear
8:36 PM 53.6 °F - 42.8 °F 67% 29.54 in 10.0 mi WSW 3.5 mph - N/A   Clear
8:56 PM 51.8 °F - 42.8 °F 71% 29.54 in 10.0 mi WSW 3.5 mph - N/A   Clear
9:16 PM 50.0 °F - 42.8 °F 76% 29.54 in 10.0 mi WSW 4.6 mph - N/A   Clear
9:36 PM 51.8 °F - 42.8 °F 71% 29.54 in 10.0 mi WSW 3.5 mph - N/A   Scattered Clouds
9:56 PM 50.0 °F - 42.8 °F 76% 29.55 in 10.0 mi West 4.6 mph - N/A   Mostly Cloudy
10:16 PM 48.2 °F - 42.8 °F 82% 29.55 in 10.0 mi WSW 3.5 mph - N/A   Scattered Clouds
10:36 PM 48.2 °F - 42.8 °F 82% 29.55 in 10.0 mi Calm Calm - N/A   Mostly Cloudy
10:56 PM 46.4 °F 45.2 °F 39.2 °F 76% 29.55 in 10.0 mi West 3.5 mph - N/A   Mostly Cloudy
11:16 PM 46.4 °F 45.2 °F 39.2 °F 76% 29.56 in 10.0 mi WSW 3.5 mph - N/A   Mostly Cloudy
11:36 PM 46.4 °F 45.2 °F 39.2 °F 76% 29.55 in 10.0 mi WSW 3.5 mph - N/A   Mostly Cloudy
11:56 PM 46.4 °F 44.3 °F 39.2 °F 76% 29.56 in 10.0 mi WSW 4.6 mph - N/A   Overcast